Wind_Speed
26 25 26 27 27 27 27 28 29 30 30 32 32 33 34 35 36 37 38 37 36 36 36 38 40 40 40 41 40 40 40 39 38 39 40 40 39 39 38 37 38 38 38
25 25 25 26 26 26 27 28 28 30 30 30 32 33 35 35 35 36 38 37 37 36 35 36 38 39 38 39 40 40 40 41 40 40 40 41 41 40 40 39 39 39 40
24 24 24 25 25 26 26 27 28 29 30 30 31 32 33 34 34 35 36 36 36 36 37 37 37 38 38 38 39 40 41 41 41 41 41 41 41 40 41 41 41 40 40
24 24 25 25 25 26 26 27 28 30 30 31 31 32 32 33 33 33 35 36 36 36 37 37 38 38 37 38 39 40 40 41 42 41 41 42 43 42 42 41 41 41 41
25 25 26 26 26 26 27 27 28 30 30 30 31 31 31 31 32 32 33 34 36 37 38 38 38 38 38 38 39 40 40 41 42 41 41 41 42 42 43 42 42 41 42
25 25 26 27 27 27 27 27 27 29 30 30 30 31 31 31 31 32 34 34 35 36 38 38 39 38 38 38 38 39 40 40 41 41 41 42 42 42 42 42 41 41 42
26 26 27 28 28 28 28 27 27 28 28 29 29 31 31 32 32 33 33 33 34 36 37 38 39 39 39 39 39 39 38 39 41 42 42 42 42 41 42 43 43 43 43
27 28 28 28 29 28 29 29 28 28 28 28 29 30 31 32 33 33 33 34 35 36 37 37 38 39 40 40 39 39 38 39 40 40 41 41 41 41 42 43 44 44 44
27 28 28 28 29 30 30 29 29 28 28 28 29 30 31 33 33 33 34 35 36 36 36 37 38 39 40 41 42 41 40 40 38 38 40 42 43 43 45 44 44 46 46
27 28 28 28 28 29 29 29 29 29 29 30 30 31 31 33 34 35 36 36 37 37 37 37 38 39 40 41 43 43 43 43 42 41 41 43 44 45 46 46 47 47 47
27 27 28 28 28 28 28 28 29 29 29 30 31 31 32 33 35 36 36 37 37 38 38 38 39 40 40 41 43 44 45 45 45 45 45 45 45 47 47 47 47 47 48
28 28 28 29 28 28 28 28 28 29 30 31 31 32 32 33 34 35 36 36 37 38 39 40 40 40 41 41 42 43 44 45 45 46 46 46 46 46 46 46 47 48 49
29 29 29 29 29 29 29 29 28 29 30 31 32 32 33 34 34 34 35 36 37 38 38 39 40 41 42 42 43 43 43 44 45 46 47 47 47 47 47 48 48 49 49
30 30 29 29 29 29 29 29 30 30 30 30 31 32 33 34 35 35 36 36 37 38 38 38 40 41 42 42 43 44 44 45 46 47 47 47 48 48 48 49 49 49 50
31 31 30 30 30 30 30 30 30 31 32 31 31 32 32 32 34 35 35 35 36 37 37 38 39 41 42 43 44 44 45 45 46 47 47 48 48 48 49 49 49 50 50
32 32 31 31 31 31 31 31 31 32 32 32 33 33 33 33 34 34 35 35 36 37 38 39 39 40 41 42 43 44 44 45 45 46 47 48 48 49 50 50 50 50 51
32 32 32 32 31 32 32 32 32 33 33 34 34 33 34 34 34 35 36 36 37 37 38 38 39 40 42 43 43 43 44 45 46 47 47 47 48 49 49 49 49 49 50
33 33 33 33 33 32 33 33 33 34 34 34 34 34 34 34 34 34 35 36 37 37 38 38 39 40 42 43 43 44 45 46 46 47 47 47 47 48 48 48 48 48 49
35 35 35 35 34 33 33 34 33 33 33 34 34 34 34 34 33 34 34 35 36 37 38 38 39 40 42 43 43 44 45 46 46 46 46 46 46 47 47 48 48 48 49
36 36 37 36 36 35 34 35 35 34 34 34 34 34 35 34 34 34 36 36 37 38 39 39 39 40 41 42 43 44 44 44 44 44 45 45 46 47 47 48 49 49 50
37 37 37 37 37 37 36 35 35 35 35 35 35 35 36 36 36 36 37 38 38 39 40 40 41 42 43 43 43 44 44 44 44 44 45 46 46 47 48 49 49 50 51
38 38 38 37 37 37 37 37 36 36 36 36 36 36 36 37 37 37 38 39 39 40 40 41 42 43 43 43 43 43 44 44 43 44 45 46 47 48 49 50 50 50 51
39 39 38 38 38 37 37 37 36 36 36 36 36 37 37 37 38 38 39 40 40 41 42 42 42 42 42 43 43 44 44 44 44 45 46 47 48 48 49 49 50 50 50
40 39 39 38 38 37 37 36 36 36 36 36 37 37 38 38 39 40 41 42 42 42 43 44 43 43 43 42 43 44 44 44 45 46 47 47 48 48 48 49 50 50 51
38 38 38 38 38 37 37 36 36 36 36 37 38 38 38 39 40 40 41 41 42 43 43 42 42 42 41 42 42 43 44 44 45 46 46 47 47 48 48 49 50 51 51
36 36 37 37 37 36 36 36 36 36 37 37 37 38 38 39 39 39 39 40 41 40 40 40 40 41 41 42 42 43 44 45 45 45 46 47 48 48 49 49 50 51 51
Wind_Direction
265 264 260 258 259 260 259 255 252 251 250 248 246 246 247 247 246 246 247 246 246 247 246 246 247 248 248 247 246 245 246 248 248 249 250 251 253 254 255 255 257 258 259
271 269 265 263 260 260 259 256 255 254 253 250 248 248 248 248 248 248 248 247 246 247 245 245 247 247 249 248 248 248 246 247 248 249 251 251 253 254 254 255 258 259 260
271 271 268 265 262 260 260 258 257 256 255 253 251 250 249 249 249 249 247 245 245 246 246 247 248 249 249 250 250 250 249 250 251 251 252 251 251 252 253 255 258 259 260
274 273 270 268 264 262 262 259 259 259 259 258 255 252 251 250 249 249 248 247 248 248 247 248 249 250 251 251 251 251 251 252 252 253 253 253 253 253 253 255 256 258 260
274 276 273 270 269 264 261 261 261 261 260 258 255 253 251 249 250 251 251 251 250 247 246 248 249 251 253 253 253 252 252 253 254 254 254 254 255 256 255 256 258 260 260
274 273 273 271 270 268 264 263 264 262 260 258 255 253 252 250 251 252 253 253 252 249 248 249 250 252 253 253 252 253 253 253 254 254 254 255 257 258 258 258 260 262 262
273 273 273 273 272 269 266 265 265 263 261 259 257 255 253 251 252 253 252 252 253 252 250 250 252 252 252 252 252 252 253 254 254 255 255 255 256 256 257 258 260 263 263
275 275 276 274 273 270 267 265 265 264 261 259 257 256 253 251 252 252 252 253 254 253 251 252 252 252 252 252 253 252 254 254 255 255 256 256 257 257 258 259 260 262 263
277 278 279 275 272 270 269 266 265 263 260 258 258 258 255 252 254 254 253 254 255 254 252 252 253 253 252 253 254 254 255 255 256 258 259 258 258 260 260 260 262 263 264
281 282 281 280 274 270 269 266 264 262 261 259 258 258 257 255 256 257 256 255 255 255 254 254 254 254 254 255 255 256 257 258 257 259 261 260 260 262 263 262 263 265 266
280 280 281 280 278 273 269 265 265 262 262 261 259 259 259 258 258 258 258 257 256 255 254 255 256 256 256 256 256 257 259 260 260 260 262 264 265 265 264 265 266 267 267
280 280 279 278 278 276 270 267 266 263 262 261 260 260 259 259 259 259 258 258 258 258 258 257 257 257 257 257 256 257 258 260 261 261 262 263 264 265 265 266 267 267 268
278 279 278 277 277 276 273 270 268 266 264 262 261 261 261 260 260 259 259 259 258 258 259 258 256 256 256 255 256 258 259 260 261 261 261 262 263 265 266 267 267 268 268
276 277 278 277 276 276 275 275 273 269 267 265 264 264 263 262 262 261 261 260 258 259 259 260 259 257 256 257 258 258 259 260 261 262 262 263 264 266 267 268 269 269 270
276 275 277 276 274 274 275 275 275 272 270 268 267 268 267 265 263 261 261 260 260 259 260 259 260 259 260 260 261 261 262 262 263 264 264 264 265 266 267 269 270 271 272
276 276 275 275 274 275 275 274 275 272 271 270 269 269 269 267 265 263 262 261 261 260 261 261 261 261 261 262 262 263 264 264 265 265 265 266 266 267 269 270 271 272 273
274 275 275 275 275 274 275 275 274 272 270 269 269 269 269 268 267 265 264 263 262 261 261 262 262 262 263 263 263 265 265 265 265 266 268 268 268 268 269 270 271 273 273
273 274 274 275 276 275 274 276 275 273 271 270 268 268 268 268 267 267 266 266 264 264 263 263 262 263 265 266 266 267 267 267 268 268 268 269 269 269 270 271 272 273 273
274 274 274 275 275 275 275 275 275 274 272 270 269 268 268 269 269 267 267 267 267 267 267 267 267 266 266 267 269 269 269 269 269 269 269 270 270 270 270 271 272 273 274
272 273 274 275 275 275 275 274 274 273 272 271 270 269 270 270 270 269 269 270 269 269 269 269 270 269 269 270 271 270 270 269 269 269 270 270 271 271 271 273 273 274 276
271 273 273 274 275 275 275 274 273 273 271 271 270 271 271 271 271 270 271 272 272 271 271 271 272 272 271 271 270 271 271 270 270 270 271 271 271 271 272 274 274 275 276
272 272 273 274 274 274 275 275 274 273 272 271 271 272 272 272 273 272 273 273 273 273 273 273 273 273 272 272 270 270 270 270 270 271 272 272 271 272 273 274 276 277 277
273 273 273 274 274 274 275 274 274 273 272 271 272 272 273 273 273 274 274 275 274 273 273 273 273 273 272 271 270 269 270 272 271 272 272 272 272 273 274 275 275 277 278
273 273 273 273 273 274 274 274 274 274 274 274 273 273 273 274 275 275 276 276 276 275 275 274 273 273 272 271 270 270 271 272 273 273 272 273 273 273 274 275 276 277 278
274 273 273 272 273 273 273 274 274 274 274 274 275 275 275 276 277 278 278 278 277 277 276 275 274 273 272 271 272 272 273 273 273 274 274 274 274 275 276 277 277 277 278
275 274 274 274 273 273 273 274 274 275 275 275 275 276 276 277 278 279 279 279 278 277 276 275 275 274 273 273 273 273 273 274 274 274 274 274 275 275 277 277 278 279 279
Height
5703 5703 5704 5705 5705 5706 5707 5708 5709 5711 5712 5714 5716 5718 5720 5722 5724 5727 5730 5732 5735 5737 5740 5743 5746 5748 5750 5752 5754 5757 5760 5762 5765 5767 5770 5773 5775 5777 5779 5781 5783 5785 5786
5697 5697 5698 5699 5699 5700 5700 5702 5702 5703 5705 5707 5708 5710 5712 5714 5716 5718 5720 5723 5726 5729 5731 5733 5736 5738 5741 5742 5744 5747 5750 5753 5755 5758 5761 5763 5766 5768 5770 5772 5774 5775 5777
5692 5692 5693 5693 5693 5694 5694 5695 5696 5697 5698 5699 5700 5701 5703 5705 5707 5709 5711 5714 5717 5720 5722 5724 5727 5729 5732 5734 5735 5738 5740 5743 5745 5748 5751 5754 5757 5759 5761 5762 5764 5766 5768
5687 5687 5687 5688 5688 5688 5688 5689 5689 5690 5691 5691 5692 5694 5695 5697 5699 5700 5703 5705 5708 5711 5714 5716 5718 5721 5723 5725 5727 5730 5732 5734 5736 5739 5741 5744 5747 5749 5751 5753 5755 5756 5758
5682 5682 5681 5682 5682 5682 5682 5682 5682 5683 5684 5684 5685 5686 5688 5689 5691 5693 5695 5698 5700 5703 5705 5707 5710 5712 5714 5716 5718 5721 5723 5725 5728 5730 5732 5734 5736 5739 5741 5743 5746 5747 5748
5676 5676 5675 5675 5675 5675 5675 5675 5675 5676 5676 5677 5678 5679 5681 5682 5684 5685 5687 5689 5691 5694 5696 5698 5701 5703 5705 5708 5710 5712 5714 5716 5718 5721 5723 5725 5727 5729 5731 5733 5735 5736 5738
5671 5670 5669 5669 5668 5668 5668 5668 5668 5669 5669 5670 5671 5672 5673 5674 5676 5678 5679 5681 5683 5685 5687 5689 5692 5694 5697 5699 5701 5703 5705 5707 5709 5711 5713 5715 5717 5719 5721 5723 5724 5726 5727
5664 5663 5662 5661 5661 5661 5661 5661 5661 5661 5662 5663 5663 5664 5665 5667 5668 5670 5671 5673 5674 5676 5678 5680 5682 5685 5687 5689 5691 5694 5696 5698 5700 5701 5703 5705 5707 5709 5710 5712 5713 5715 5716
5658 5656 5655 5654 5654 5654 5653 5653 5653 5654 5654 5655 5656 5657 5657 5659 5660 5661 5662 5664 5665 5667 5669 5671 5673 5675 5677 5680 5682 5684 5686 5688 5690 5692 5694 5695 5697 5698 5699 5700 5702 5704 5705
5651 5649 5648 5647 5646 5646 5646 5645 5646 5646 5646 5647 5648 5649 5650 5651 5651 5652 5653 5655 5656 5658 5660 5661 5663 5665 5667 5670 5672 5674 5675 5677 5680 5681 5683 5685 5686 5687 5688 5689 5691 5692 5693
5644 5643 5642 5640 5639 5638 5638 5638 5638 5638 5638 5639 5640 5641 5641 5642 5643 5643 5644 5645 5646 5648 5650 5652 5654 5655 5657 5659 5661 5663 5665 5667 5669 5671 5672 5673 5675 5676 5677 5678 5679 5680 5681
5637 5636 5634 5633 5632 5631 5631 5631 5631 5631 5631 5632 5632 5632 5633 5633 5634 5634 5635 5636 5638 5639 5641 5642 5644 5645 5647 5648 5650 5652 5653 5655 5657 5659 5661 5662 5663 5664 5665 5666 5666 5667 5668
5629 5628 5627 5626 5624 5624 5624 5624 5623 5623 5623 5623 5623 5624 5624 5625 5625 5626 5627 5627 5628 5629 5630 5632 5633 5635 5636 5638 5639 5641 5642 5644 5645 5647 5648 5650 5651 5652 5653 5653 5654 5654 5655
5621 5620 5619 5618 5617 5616 5616 5616 5615 5615 5615 5614 5615 5615 5615 5616 5616 5617 5617 5618 5619 5620 5620 5622 5623 5624 5625 5627 5628 5630 5631 5632 5634 5635 5636 5637 5638 5639 5640 5640 5641 5641 5641
5613 5612 5611 5610 5609 5609 5608 5608 5607 5606 5606 5606 5606 5606 5607 5607 5607 5607 5608 5608 5609 5610 5611 5612 5613 5614 5615 5616 5617 5618 5620 5621 5622 5623 5623 5624 5625 5626 5626 5627 5627 5627 5627
5604 5604 5603 5602 5601 5600 5600 5599 5599 5598 5598 5598 5597 5597 5597 5597 5598 5598 5598 5599 5600 5600 5601 5602 5602 5603 5604 5605 5606 5607 5608 5609 5610 5610 5610 5611 5612 5612 5613 5613 5613 5613 5613
5596 5595 5594 5593 5592 5591 5591 5590 5590 5589 5589 5589 5589 5588 5588 5588 5588 5588 5589 5589 5590 5590 5591 5591 5592 5593 5593 5594 5594 5595 5596 5597 5597 5597 5597 5598 5598 5598 5599 5599 5599 5599 5599
5587 5586 5585 5584 5584 5582 5582 5581 5581 5580 5580 5579 5579 5579 5579 5579 5579 5579 5579 5579 5580 5580 5581 5581 5581 5582 5582 5582 5582 5583 5583 5584 5584 5584 5584 5585 5585 5585 5585 5585 5586 5585 5585
5577 5577 5576 5575 5574 5573 5573 5572 5571 5571 5570 5570 5570 5570 5569 5570 5569 5570 5570 5570 5570 5570 5570 5570 5570 5570 5571 5570 5570 5570 5571 5571 5571 5571 5571 5572 5572 5572 5572 5572 5572 5572 5571
5567 5566 5566 5565 5564 5564 5563 5563 5562 5561 5561 5561 5560 5560 5560 5560 5560 5560 5560 5560 5559 5559 5559 5559 5559 5559 5559 5558 5558 5558 5558 5558 5558 5559 5559 5559 5559 5559 5558 5558 5558 5558 5557
5556 5555 5555 5554 5554 5553 5553 5553 5552 5552 5551 5551 5551 5550 5550 5550 5550 5550 5549 5549 5549 5548 5548 5548 5548 5547 5547 5546 5546 5545 5545 5546 5546 5546 5546 5546 5545 5545 5545 5544 5544 5543 5543
5544 5544 5544 5543 5543 5542 5542 5542 5542 5541 5541 5541 5541 5540 5540 5540 5540 5539 5539 5538 5538 5537 5537 5536 5536 5535 5534 5534 5533 5533 5533 5533 5533 5533 5533 5532 5532 5531 5531 5530 5530 5529 5528
5533 5532 5532 5532 5532 5531 5531 5531 5531 5531 5531 5530 5530 5530 5530 5529 5529 5528 5527 5527 5526 5525 5525 5524 5523 5523 5522 5521 5521 5520 5520 5520 5520 5520 5519 5519 5518 5518 5517 5516 5515 5514 5513
5521 5521 5521 5521 5521 5520 5520 5520 5520 5520 5520 5520 5519 5519 5519 5519 5518 5517 5516 5515 5514 5513 5512 5511 5510 5510 5509 5509 5508 5507 5507 5506 5506 5506 5505 5504 5504 5503 5503 5502 5500 5499 5498
5510 5509 5509 5509 5509 5509 5509 5509 5509 5509 5509 5509 5508 5508 5508 5507 5506 5505 5504 5502 5501 5500 5499 5498 5497 5496 5496 5496 5495 5494 5494 5493 5492 5492 5491 5490 5490 5489 5488 5487 5485 5484 5482
5498 5498 5498 5498 5498 5498 5498 5498 5498 5498 5498 5497 5497 5497 5496 5495 5494 5493 5492 5490 5488 5487 5485 5484 5484 5483 5483 5482 5481 5481 5480 5479 5478 5478 5477 5476 5476 5475 5473 5472 5470 5469 5467